When you browse on this site, cookies collect data to enhance your experience and personalize the content and advertising you see.
Visit our Privacy Policy to learn more. By continuing to use the site, you agree to this use of cookies and data.
  • In Österreich
  • Länderverzeichnis
  • Für 7 Tage
  • Wassertemperatur
  • Wetterkarte
  • News
  • Widgets
  • user-avatar
    Anmelden

    Stündliche Wetter Kerkira

    Heute, 23 Januar, Donnerstag

    Zeit Temperatur Niederschläge Wind Luftdruck Luftfeuchtigkeit
    00:00 +7°C° 0 mm 3 m/S 770 mmHg 49%
    01:00 +7°C° 0 mm 3 m/S 769 mmHg 48%
    02:00 +7°C° 0 mm 3 m/S 769 mmHg 48%
    03:00 +7°C° 0 mm 3 m/S 769 mmHg 48%
    04:00 +6°C° 0 mm 4 m/S 769 mmHg 48%
    05:00 +6°C° 0 mm 4 m/S 769 mmHg 49%
    06:00 +6°C° 0 mm 4 m/S 769 mmHg 51%
    07:00 +5°C° 0 mm 4 m/S 769 mmHg 53%
    08:00 +8°C° 0 mm 3 m/S 769 mmHg 50%
    09:00 +10°C° 0 mm 3 m/S 769 mmHg 48%
    10:00 +12°C° 0 mm 2 m/S 769 mmHg 45%
    11:00 +13°C° 0 mm 2 m/S 769 mmHg 44%
    12:00 +14°C° 0 mm 2 m/S 769 mmHg 44%
    13:00 +15°C° 0 mm 2 m/S 769 mmHg 43%
    14:00 +14°C° 0 mm 2 m/S 769 mmHg 47%
    15:00 +14°C° 0 mm 2 m/S 769 mmHg 51%
    16:00 +13°C° 0 mm 1 m/S 769 mmHg 55%
    17:00 +13°C° 0 mm 1 m/S 769 mmHg 56%
    18:00 +12°C° 0 mm 2 m/S 770 mmHg 57%
    19:00 +10°C° 0 mm 2 m/S 770 mmHg 59%
    20:00 +10°C° 0 mm 2 m/S 770 mmHg 58%
    21:00 +9°C° 0 mm 3 m/S 771 mmHg 58%
    22:00 +8°C° 0 mm 4 m/S 771 mmHg 58%
    23:00 +8°C° 0 mm 4 m/S 771 mmHg 57%

    Morgen, 24 Januar, Freitag

    Zeit Temperatur Niederschläge Wind Luftdruck Luftfeuchtigkeit
    00:00 +8°C° 0 mm 4 m/S 772 mmHg 57%
    01:00 +7°C° 0 mm 4 m/S 772 mmHg 57%
    02:00 +7°C° 0 mm 4 m/S 772 mmHg 57%
    03:00 +7°C° 0 mm 4 m/S 772 mmHg 57%
    04:00 +7°C° 0 mm 5 m/S 772 mmHg 57%
    05:00 +7°C° 0 mm 5 m/S 772 mmHg 59%
    06:00 +7°C° 0 mm 5 m/S 772 mmHg 61%
    07:00 +7°C° 0 mm 5 m/S 773 mmHg 63%
    08:00 +8°C° 0 mm 5 m/S 773 mmHg 63%
    09:00 +9°C° 0 mm 5 m/S 773 mmHg 62%
    10:00 +12°C° 0 mm 4 m/S 773 mmHg 62%
    11:00 +12°C° 0.1 mm 4 m/S 773 mmHg 64%
    12:00 +13°C° 0.1 mm 4 m/S 772 mmHg 66%
    13:00 +13°C° 0.1 mm 4 m/S 772 mmHg 68%
    14:00 +13°C° 0 mm 4 m/S 772 mmHg 72%
    15:00 +12°C° 0 mm 4 m/S 772 mmHg 76%
    16:00 +12°C° 0 mm 3 m/S 772 mmHg 80%
    17:00 +12°C° 0 mm 3 m/S 772 mmHg 80%
    18:00 +11°C° 0 mm 3 m/S 772 mmHg 81%
    19:00 +11°C° 0 mm 3 m/S 772 mmHg 82%
    20:00 +11°C° 0 mm 3 m/S 772 mmHg 82%
    21:00 +10°C° 0 mm 2 m/S 772 mmHg 82%
    22:00 +10°C° 0 mm 2 m/S 772 mmHg 82%
    23:00 +10°C° 0 mm 2 m/S 771 mmHg 81%

    übermorgen, 25 Januar, Samstag

    Zeit Temperatur Niederschläge Wind Luftdruck Luftfeuchtigkeit
    00:00 +10°C° 0 mm 2 m/S 771 mmHg 80%
    01:00 +10°C° 0 mm 2 m/S 771 mmHg 79%
    02:00 +10°C° 0.1 mm 2 m/S 771 mmHg 80%
    03:00 +10°C° 0.1 mm 2 m/S 770 mmHg 81%
    04:00 +10°C° 0.1 mm 2 m/S 770 mmHg 83%
    05:00 +10°C° 0 mm 2 m/S 770 mmHg 82%
    06:00 +10°C° 0 mm 2 m/S 770 mmHg 81%
    07:00 +10°C° 0 mm 2 m/S 770 mmHg 80%
    08:00 +11°C° 0 mm 3 m/S 770 mmHg 78%
    09:00 +12°C° 0 mm 3 m/S 770 mmHg 76%
    10:00 +13°C° 0 mm 3 m/S 770 mmHg 74%
    11:00 +13°C° 0.1 mm 3 m/S 770 mmHg 74%
    12:00 +14°C° 0.1 mm 3 m/S 769 mmHg 73%
    13:00 +14°C° 0.1 mm 3 m/S 769 mmHg 73%
    14:00 +14°C° 0.1 mm 3 m/S 768 mmHg 75%
    15:00 +13°C° 0.1 mm 3 m/S 768 mmHg 77%
    16:00 +13°C° 0.1 mm 3 m/S 768 mmHg 78%
    17:00 +13°C° 0 mm 3 m/S 768 mmHg 80%
    18:00 +12°C° 0 mm 3 m/S 768 mmHg 82%
    19:00 +11°C° 0 mm 3 m/S 768 mmHg 84%
    20:00 +11°C° 0 mm 3 m/S 768 mmHg 84%
    21:00 +11°C° 0 mm 3 m/S 768 mmHg 83%
    22:00 +11°C° 0 mm 3 m/S 768 mmHg 83%
    23:00 +11°C° 0 mm 4 m/S 768 mmHg 82%

    26 Januar, Sonntag

    Zeit Temperatur Niederschläge Wind Luftdruck Luftfeuchtigkeit
    00:00 +11°C° 0 mm 4 m/S 768 mmHg 82%
    01:00 +11°C° 0 mm 4 m/S 768 mmHg 81%
    02:00 +11°C° 0 mm 4 m/S 768 mmHg 81%
    03:00 +10°C° 0 mm 4 m/S 768 mmHg 81%
    04:00 +9°C° 0 mm 5 m/S 767 mmHg 81%
    05:00 +9°C° 0 mm 5 m/S 767 mmHg 80%
    06:00 +9°C° 0 mm 5 m/S 767 mmHg 79%
    07:00 +9°C° 0 mm 5 m/S 767 mmHg 79%
    08:00 +10°C° 0 mm 5 m/S 767 mmHg 76%
    09:00 +12°C° 0 mm 5 m/S 767 mmHg 73%
    10:00 +13°C° 0 mm 5 m/S 767 mmHg 70%
    11:00 +13°C° 0 mm 5 m/S 767 mmHg 70%
    12:00 +14°C° 0 mm 5 m/S 766 mmHg 70%
    13:00 +14°C° 0 mm 6 m/S 765 mmHg 71%
    14:00 +14°C° 0 mm 6 m/S 765 mmHg 71%
    15:00 +14°C° 0 mm 6 m/S 765 mmHg 72%
    16:00 +14°C° 0 mm 6 m/S 765 mmHg 72%
    17:00 +13°C° 1.2 mm 6 m/S 765 mmHg 77%
    18:00 +13°C° 1.2 mm 6 m/S 765 mmHg 81%
    19:00 +12°C° 1.2 mm 5 m/S 765 mmHg 86%
    20:00 +12°C° 2.7 mm 5 m/S 765 mmHg 89%
    21:00 +12°C° 2.7 mm 5 m/S 765 mmHg 92%
    22:00 +12°C° 2.7 mm 5 m/S 765 mmHg 95%
    23:00 +12°C° 1.5 mm 5 m/S 764 mmHg 94%

    27 Januar, Montag

    Zeit Temperatur Niederschläge Wind Luftdruck Luftfeuchtigkeit
    00:00 +13°C° 1.5 mm 5 m/S 764 mmHg 93%
    01:00 +13°C° 1.5 mm 5 m/S 764 mmHg 93%
    02:00 +13°C° 1.2 mm 5 m/S 763 mmHg 92%
    03:00 +13°C° 1.2 mm 6 m/S 763 mmHg 91%
    04:00 +13°C° 1.2 mm 6 m/S 763 mmHg 90%
    05:00 +13°C° 0.9 mm 6 m/S 762 mmHg 90%
    06:00 +12°C° 0.9 mm 7 m/S 762 mmHg 89%
    07:00 +12°C° 0.9 mm 7 m/S 762 mmHg 89%
    08:00 +12°C° 1.6 mm 7 m/S 762 mmHg 90%
    09:00 +12°C° 1.6 mm 8 m/S 762 mmHg 91%
    10:00 +12°C° 1.6 mm 8 m/S 762 mmHg 91%
    11:00 +12°C° 2.6 mm 8 m/S 762 mmHg 91%
    12:00 +12°C° 2.6 mm 7 m/S 762 mmHg 90%
    13:00 +13°C° 2.6 mm 6 m/S 762 mmHg 89%
    14:00 +13°C° 0.6 mm 5 m/S 762 mmHg 89%
    15:00 +13°C° 0.6 mm 4 m/S 762 mmHg 88%
    16:00 +14°C° 0.6 mm 2 m/S 762 mmHg 87%
    17:00 +12°C° 0.1 mm 3 m/S 762 mmHg 87%
    18:00 +12°C° 0.1 mm 3 m/S 762 mmHg 87%
    19:00 +11°C° 0.1 mm 3 m/S 762 mmHg 87%
    20:00 +11°C° 0.1 mm 3 m/S 762 mmHg 88%
    21:00 +11°C° 0.1 mm 4 m/S 763 mmHg 88%
    22:00 +11°C° 0.1 mm 4 m/S 763 mmHg 88%
    23:00 +11°C° 0.1 mm 4 m/S 763 mmHg 87%

    28 Januar, Dienstag

    Zeit Temperatur Niederschläge Wind Luftdruck Luftfeuchtigkeit
    00:00 +11°C° 0.1 mm 4 m/S 762 mmHg 87%
    01:00 +10°C° 0.1 mm 4 m/S 762 mmHg 86%
    02:00 +10°C° 0 mm 3 m/S 762 mmHg 85%
    03:00 +10°C° 0 mm 3 m/S 762 mmHg 84%
    04:00 +10°C° 0 mm 3 m/S 762 mmHg 83%
    05:00 +10°C° 0 mm 3 m/S 763 mmHg 82%
    06:00 +10°C° 0 mm 3 m/S 763 mmHg 82%
    07:00 +10°C° 0 mm 2 m/S 763 mmHg 81%
    08:00 +12°C° 0 mm 2 m/S 763 mmHg 77%
    09:00 +14°C° 0 mm 2 m/S 763 mmHg 73%
    10:00 +15°C° 0 mm 1 m/S 763 mmHg 69%
    11:00 +15°C° 0 mm 1 m/S 763 mmHg 67%
    12:00 +16°C° 0 mm 1 m/S 763 mmHg 65%
    13:00 +18°C° 0 mm 1 m/S 763 mmHg 63%
    14:00 +16°C° 0 mm 2 m/S 763 mmHg 67%
    15:00 +16°C° 0 mm 2 m/S 763 mmHg 71%
    16:00 +14°C° 0 mm 3 m/S 763 mmHg 75%
    17:00 +13°C° 0 mm 3 m/S 763 mmHg 77%
    18:00 +14°C° 0 mm 2 m/S 764 mmHg 78%
    19:00 +13°C° 0 mm 2 m/S 764 mmHg 80%
    20:00 +13°C° 0 mm 2 m/S 764 mmHg 80%
    21:00 +13°C° 0 mm 2 m/S 765 mmHg 79%
    22:00 +12°C° 0 mm 2 m/S 765 mmHg 79%
    23:00 +12°C° 0 mm 2 m/S 765 mmHg 78%
    Mehr zeigen